Regional Weather Roundup
Issued by NWS

Home | Current Version | Previous Version | Text Only | Print | Product List | Glossary On
Versions: 1 2 3 4 5 6 7 8 9 10 11 12 13 14 15 16 17 18 19 20 21 22 23 24 25 26 27 28 29 30 31 32 33 34 35 36 37 38 39 40 41 42 43 44 45 46 47 48 49 50
000
ASUS45 KPSR 262010
RWRAZ

ARIZONA HOURLY REGIONAL WEATHER ROUNDUP
NATIONAL WEATHER SERVICE PHOENIX AZ
100 PM MST THU MAY 26 2016

NOTE: FAIR INDICATES FEW OR NO CLOUDS BELOW 12,000 FEET WITH NO
SIGNIFICANT WEATHER AND/OR OBSTRUCTIONS TO VISIBILITY.

AZZ001>003-036-262100-
NORTHWEST ARIZONA

CITY           SKY/WX    TMP DP  RH WIND       PRES   REMARKS
BULLHEAD CITY  FAIR      84  34  16 CALM      29.89F
KINGMAN        FAIR      74  27  17 MISG      29.97F
$$

AZZ004>008-015-016-018-262100-
NORTH CENTRAL ARIZONA

CITY           SKY/WX    TMP DP  RH WIND       PRES   REMARKS
GRAND CANYON   CLOUDY    57  27  31 SW6G18    30.05R
WILLIAMS       FAIR      61  21  21 W14G20    30.12F
PRESCOTT       PTSUNNY   65  22  19 CALM      30.01F
FLAGSTAFF      PTSUNNY   56  25  30 SW10G22   30.05F
PAYSON         FAIR      66  23  19 W10G18    30.04F
PAGE           FAIR      72  26  18 NW8G18    29.92S
$$

AZZ009>014-017-262100-
NORTHEAST ARIZONA

CITY           SKY/WX    TMP DP  RH WIND       PRES   REMARKS
WINSLOW        FAIR      67  24  19 W5G20     29.97F
SAINT JOHNS    FAIR      63  18  17 W13G22    29.99F
WINDOW ROCK    LGT RAIN  53  24  32 VRB5G16   30.02S
SHOW LOW       FAIR      57  18  21 SW10G22   30.05F
$$

AZZ023-262100-
GREATER PHOENIX AREA

CITY           SKY/WX    TMP DP  RH WIND       PRES   REMARKS
PHOENIX        FAIR      81  34  18 VRB3      29.90F
BUCKEYE        FAIR      81  32  17 SW10G17   29.92F
GLENDALE       MOSUNNY   81  36  19 SW9       29.92F
LUKE AFB       FAIR      81  37  20 S14G22    29.89F
DEER VALLEY    FAIR      79  33  19 MISG      29.91F
SCOTTSDALE     FAIR      79  33  19 MISG      29.93F
MESA-GATEWAY   MOSUNNY   79  34  19 W8G17     29.93F
CHANDLER       MOSUNNY   79  30  17 SW9       29.92F
$$

AZZ027-028-262100-
SOUTHWEST MARICOPA COUNTY AND PINAL COUNTY

CITY           SKY/WX    TMP DP  RH WIND       PRES   REMARKS
CASA GRANDE    FAIR      79  32  18 W3        29.94F
GILA BEND      MOSUNNY   80  32  17 VRB3      29.91F
$$

AZZ503-504-507>509-262100-
SOUTHEAST ARIZONA

CITY           SKY/WX    TMP DP  RH WIND       PRES   REMARKS
TUCSON         FAIR      77  19  11 SW5       29.97F
DAVIS-MONTHAN  FAIR      76  20  12 VRB6      29.95F
RYAN FIELD     SUNNY     75  27  16 NW6       29.96F
NOGALES        FAIR      77  13   9 VRB7      29.99F
SIERRA VISTA   FAIR      73  11   9 W14       30.01F
DOUGLAS        FAIR      76  15  10 VRB6G24   29.97F
SAFFORD        FAIR      78  20  11 W10       29.92F
$$

AZZ020-021-025-026-031-262100-
SOUTHWEST ARIZONA

CITY           SKY/WX    TMP DP  RH WIND       PRES   REMARKS
YUMA           FAIR      82  40  22 W8        29.91F
$$

CAZ031-033-041-043-047-048-061-262100-
SOUTHERN CALIFORNIA

CITY           SKY/WX    TMP DP  RH WIND       PRES   REMARKS
DOWNTOWN L.A.  PTSUNNY   70  53  54 CALM      30.04S
L.A. AIRPORT   FAIR      68  52  56 W15       30.05F
SAN DIEGO      PTSUNNY   66  52  60 SW9       30.07F
BURBANK        FAIR      71  51  49 S9G17     30.03F
ONTARIO        FAIR      72  48  42 W9        30.02F
RIVERSIDE      FAIR      74  48  39 NW8       30.02F
PALM SPRINGS   FAIR      82  41  23 NW17G24   29.89F
EL CENTRO NAS  FAIR      85  35  16 SW7       29.91F
IMPERIAL       FAIR      86  39  19 W7        29.89F
BLYTHE         FAIR      85  41  21 VRB5      29.89F
NEEDLES        FAIR      85  33  15 VRB5      29.88F
$$

NVZ020-UTZ003-262100-
SOUTHERN NEVADA-UTAH

CITY           SKY/WX    TMP DP  RH WIND       PRES   REMARKS
LAS VEGAS      FAIR      81  26  13 W9        29.88F
SALT LAKE CITY FAIR      68  40  35 W12G23    29.96F
$$

NMZ009-TXZ055-262100-
NEW MEXICO-WEST TEXAS

CITY           SKY/WX    TMP DP  RH WIND       PRES   REMARKS
ALBUQUERQUE    PTSUNNY   71   7   8 S16G26    29.88F
EL PASO        FAIR      84  27  12 W15G24    29.88F
$$


........................KEY........................
SKY/WX - SKY CONDITION/WEATHER
TMP    - TEMPERATURE IN FAHRENHEIT
DP     - DEW POINT IN FAHRENHEIT
RH     - RELATIVE HUMIDITY IN PERCENT
WIND   - DIRECTION AND SPEED IN MILES PER HOUR (MPH)
VRB    - VARIABLE WIND DIRECTION
PRES   - MEAN SEA LEVEL PRESSURE IN INCHES OF MERCURY
         F - FALLING PRESSURE   R - RISING PRESSURE
         S - STEADY PRESSURE
VSB    - VISIBILITY IN MILES
HX     - HEAT INDEX IN FAHRENHEIT
WCI    - WIND CHILL INDEX IN FAHRENHEIT
TC     - TEMPERATURE IN CELSIUS WHICH IS ALSO KNOWN AS
         TEMPERATURE IN CENTIGRADE
AFB    - AIR FORCE BASE
         LUKE AFB IS LUKE AIR FORCE BASE
         DAVIS-MONTHAN IS DAVIS-MONTHAN AIR FORCE BASE
NAS    - NAVAL AIR STATION
         EL CENTRO NAS IS EL CENTRO NAVAL AIR STATION
N/A    - NOT AVAILABLE




USA.gov is the U.S. government's official web portal to all federal, state and local government web resources and services.